Theta_e
318 319 319 320 322 323 321 321 325 320 320 323 322 321 320 317 317 314 316 318 318 322 322 323 321 321 320 315 317 317 318 320 322 322 318 318 319 322 322 327 328 321 323 327
313 315 316 317 318 320 320 323 323 319 321 327 326 323 321 318 318 318 316 318 320 318 322 323 323 321 319 317 319 321 319 324 327 329 326 320 322 320 319 321 321 327 331 329
307 308 313 315 317 317 317 318 319 321 322 323 325 325 325 322 318 318 317 317 319 321 323 321 322 322 320 318 319 319 319 325 329 330 329 327 326 322 320 322 327 327 327 327
303 305 307 310 312 315 319 319 317 317 323 326 326 325 325 326 322 318 317 318 319 320 321 321 322 322 321 318 320 322 324 328 325 326 325 324 325 327 324 322 323 328 327 328
300 303 303 306 308 309 313 312 315 314 321 321 326 325 327 326 325 321 321 320 319 318 321 320 323 320 322 323 320 323 322 329 327 328 326 326 329 327 326 324 324 325 325 327
300 300 302 302 305 307 307 306 307 316 320 321 322 325 326 325 324 324 322 321 321 319 320 318 319 319 320 322 323 323 325 327 326 330 328 329 331 329 329 328 327 328 330 327
300 300 301 301 302 304 307 305 307 313 320 322 322 321 323 326 325 325 323 321 321 321 317 317 318 318 320 320 321 322 324 325 325 330 328 332 329 325 325 327 326 326 326 326
300 300 300 301 302 302 304 304 306 309 312 319 321 322 322 323 324 325 324 322 321 318 319 318 320 317 319 322 322 324 323 325 326 329 330 328 328 322 325 326 327 324 325 324
300 301 301 300 301 302 302 302 304 302 308 311 312 317 320 323 322 322 322 316 316 319 321 317 327 324 325 327 325 323 324 325 327 318 326 332 327 318 320 321 328 322 321 322
300 300 300 301 301 302 302 301 301 299 301 302 305 312 314 316 319 320 315 316 318 320 321 323 326 327 323 327 326 324 326 326 328 328 329 326 322 314 318 326 326 318 319 321
300 300 301 301 301 301 302 300 300 299 297 300 302 303 305 306 311 317 311 315 311 315 324 322 317 320 322 323 323 324 326 327 328 327 329 330 317 314 321 320 311 312 312 315
301 301 301 301 301 301 302 299 298 299 298 299 298 300 300 301 303 303 304 310 310 312 317 316 314 313 314 321 326 316 325 324 326 325 327 319 315 318 314 309 310 307 308 307
299 300 301 301 301 301 301 299 298 297 296 297 298 299 299 300 301 302 303 302 304 305 304 308 312 314 313 317 320 316 316 316 320 321 320 317 313 312 309 308 308 306 305 305
300 301 302 301 301 301 301 299 298 298 298 300 300 297 298 300 300 302 302 301 303 300 300 301 305 308 306 313 315 319 316 315 319 316 314 312 313 312 308 307 308 306 302 302
300 301 302 301 301 301 301 300 298 300 299 300 299 297 297 298 300 302 303 303 302 299 301 302 306 303 304 304 305 310 312 315 318 319 315 315 314 311 308 309 311 309 302 299
300 300 301 301 301 301 300 296 298 299 299 300 299 296 296 297 299 302 303 302 302 299 300 302 301 302 305 307 309 308 309 310 310 312 311 312 311 310 307 309 308 301 300 300
300 300 300 300 300 301 297 298 299 299 299 299 299 297 296 297 299 300 301 301 299 300 300 301 304 303 305 306 308 306 306 307 309 309 306 307 304 307 303 301 301 301 300 300
300 300 300 300 300 295 296 298 299 299 298 299 299 296 297 297 300 302 300 301 298 298 300 299 303 303 303 306 305 304 304 304 304 306 306 308 305 302 301 300 299 299 298 298
300 299 298 296 296 294 297 299 299 299 298 299 299 298 298 297 299 300 300 300 302 300 302 302 302 304 305 304 304 304 303 303 303 302 303 303 303 301 300 300 300 299 298 297
297 296 295 296 294 297 298 298 295 295 295 297 298 295 298 298 299 301 300 300 302 301 300 301 303 303 302 303 302 302 301 302 302 301 300 300 301 300 300 300 299 298 296 294
295 294 293 296 297 295 295 299 299 296 297 295 295 296 298 298 300 300 297 299 299 300 299 301 300 300 300 298 299 299 299 299 300 301 300 300 300 299 298 297 295 294 293 293
295 295 295 295 295 295 297 298 297 296 298 296 298 297 297 297 296 299 297 299 297 299 296 298 299 299 297 296 296 297 296 298 299 300 299 299 299 298 297 295 294 293 292 291
296 294 292 294 292 294 297 298 297 297 296 296 297 298 298 296 297 297 298 298 298 296 298 297 298 296 296 296 296 295 295 295 295 294 293 293 292 292 292 291 290 290 288 288
292 293 294 293 294 293 295 297 297 295 296 297 296 296 297 295 298 297 297 297 297 297 296 297 297 295 294 295 295 296 296 294 293 292 290 289 288 287 286 286 287 286 286 284
293 291 290 292 292 294 293 293 295 294 295 296 296 295 295 297 297 296 296 296 297 297 299 298 294 294 295 295 295 295 293 292 291 289 288 287 287 287 285 285 286 285 284 284
293 293 293 295 295 294 296 294 295 296 296 295 295 296 297 297 298 298 296 297 298 298 297 294 295 295 294 294 293 292 292 291 290 288 288 287 286 287 286 284 283 283 282 282
296 293 291 292 291 292 295 295 295 296 297 297 297 296 297 296 297 298 298 298 297 295 295 295 295 294 293 292 291 290 290 290 289 288 287 286 285 285 285 284 283 282 281 281
Wind_Speed
32 34 35 36 40 45 46 10 12 41 43 10 7 18 17 7 8 4 3 1 4 7 8 6 6 10 6 7 7 10 4 4 6 13 3 2 1 8 11 10 11 5 6 15
16 24 28 35 41 48 29 7 7 45 42 14 17 12 19 14 12 17 7 8 5 4 6 3 7 7 4 9 10 10 9 4 3 3 2 1 5 7 8 8 6 19 15 11
13 15 23 29 34 41 21 4 4 4 12 19 24 20 15 16 21 12 14 4 5 3 5 5 5 6 5 4 5 3 9 7 8 13 9 3 5 11 12 16 14 15 25 34
13 11 11 18 25 40 21 5 4 4 8 17 22 23 14 17 13 19 21 11 20 15 13 14 12 5 1 1 2 1 5 14 9 11 10 6 16 21 15 19 21 20 25 30
18 16 18 15 15 18 15 4 5 1 3 3 12 12 23 26 21 12 18 20 20 18 26 24 15 18 7 14 1 7 5 15 10 23 14 16 30 25 20 19 20 21 26 37
21 21 22 19 17 14 1 3 2 2 8 13 13 14 23 26 21 17 25 26 22 27 31 25 24 12 9 11 18 11 7 6 3 29 14 15 24 18 28 28 29 27 28 41
24 23 24 22 20 22 3 2 3 3 11 13 21 27 28 24 26 29 22 22 27 28 6 20 3 3 12 18 21 16 15 14 11 17 5 12 21 9 14 21 26 28 31 31
26 26 27 25 26 24 10 5 3 1 2 13 14 19 24 23 18 21 22 19 22 14 13 2 2 2 3 17 18 18 17 12 6 8 14 17 30 6 8 10 27 23 24 26
26 27 28 28 27 26 21 6 10 2 2 3 4 5 12 13 15 12 17 2 1 9 7 4 12 8 5 8 5 22 20 18 12 4 5 13 18 1 11 5 22 15 19 20
27 28 29 29 29 29 25 11 10 6 2 1 2 2 2 1 3 3 4 5 5 13 8 10 10 12 10 9 9 6 14 15 23 20 16 9 8 6 10 11 9 6 11 15
26 28 32 33 31 31 29 11 26 11 2 1 0 3 3 3 3 2 3 3 2 5 10 6 3 5 8 4 5 10 12 8 12 14 14 20 11 8 13 4 1 4 3 6
28 30 33 34 35 35 35 6 25 19 3 1 2 8 13 5 4 3 4 2 2 3 2 2 3 3 3 7 9 4 8 11 8 11 7 2 10 9 7 2 3 3 3 3
26 30 35 37 38 38 40 17 27 11 3 1 3 6 11 13 19 9 1 1 5 3 3 1 2 4 3 6 7 4 6 4 6 4 8 8 5 7 2 3 3 3 3 5
20 25 30 36 39 39 40 17 25 17 3 2 2 1 4 6 16 22 19 5 2 1 1 2 1 1 4 2 3 8 5 11 10 4 4 2 6 6 4 3 2 4 3 6
16 20 27 31 35 36 35 23 32 23 4 3 1 1 3 3 10 15 18 11 5 3 2 3 3 0 1 1 2 3 2 4 5 4 4 4 3 4 7 8 12 11 8 5
16 17 22 26 31 33 15 3 25 29 11 3 1 1 2 2 6 9 11 8 5 3 3 2 2 2 3 2 2 5 6 5 6 2 2 2 4 8 4 9 9 9 10 10
16 19 22 26 27 28 5 3 7 28 18 2 1 2 0 2 1 2 2 0 2 3 2 4 3 4 5 2 4 8 6 9 8 3 3 4 5 7 7 5 5 9 10 11
15 17 20 23 27 20 7 4 31 28 9 2 2 1 2 4 2 2 2 2 2 3 2 2 2 3 3 4 12 14 16 14 7 7 10 12 7 5 8 10 12 13 12 11
20 31 37 22 6 3 5 13 25 12 4 5 4 5 4 4 1 1 1 2 3 2 3 3 4 3 5 10 16 16 13 7 9 5 11 13 10 11 11 13 11 11 9 7
36 20 4 3 4 31 25 6 1 2 1 1 3 2 3 4 2 3 2 1 2 2 2 1 3 4 14 16 9 7 8 10 8 5 3 4 8 11 13 9 5 6 5 5
7 3 2 15 16 4 2 2 2 2 2 3 3 4 5 2 4 3 2 1 1 2 1 2 2 5 3 4 6 6 7 7 10 10 4 7 10 9 9 7 5 6 7 6
8 16 8 5 3 2 3 2 2 2 4 4 4 3 2 2 2 2 2 2 2 3 3 2 3 4 4 3 3 5 3 4 5 6 11 13 10 7 6 7 7 8 11 11
8 4 3 2 1 3 5 5 3 2 4 5 4 4 3 2 2 2 3 3 3 3 3 4 4 4 2 1 2 7 10 12 13 12 11 11 8 9 8 9 11 13 12 12
2 3 3 2 2 3 3 2 3 2 2 7 5 3 2 2 2 2 3 2 3 3 3 5 2 3 3 2 4 10 10 10 11 10 10 11 11 10 13 14 14 13 9 9
2 2 2 3 2 1 1 1 3 1 5 5 4 3 1 2 2 2 3 3 4 5 4 2 2 2 3 6 7 9 9 9 10 10 10 9 9 10 9 12 12 11 10 7
2 3 3 2 1 1 2 2 3 1 4 2 2 2 2 2 2 3 5 3 5 3 1 1 1 3 4 6 7 8 10 11 10 9 9 10 7 8 10 10 10 11 9 8
1 1 1 2 1 3 3 3 3 4 5 3 3 4 4 3 2 3 4 4 1 1 2 2 2 5 7 8 9 8 9 10 10 9 11 10 12 13 11 8 7 10 9 8
Wind_Direction
197 199 209 215 210 201 186 174 203 160 167 190 200 217 208 152 188 186 211 122 199 179 177 194 203 201 227 160 148 169 194 158 208 226 125 97 74 239 227 238 246 231 262 264
186 196 200 205 204 198 183 187 181 170 164 201 211 209 213 213 177 207 178 191 208 202 188 217 196 197 229 166 163 171 179 194 218 248 224 163 212 196 211 240 258 253 261 255
185 184 193 191 203 199 181 161 162 165 192 204 203 205 203 206 203 206 205 180 162 139 218 249 223 204 222 196 199 262 164 180 203 245 245 163 213 217 213 220 242 259 244 275
220 206 210 189 179 203 187 159 235 217 190 200 206 207 195 201 185 213 191 218 207 198 227 228 230 221 237 9 211 190 197 253 236 244 244 218 249 247 223 224 237 244 266 261
216 225 228 210 192 198 208 154 161 182 175 204 199 191 211 214 200 161 211 214 202 218 229 222 230 223 206 227 319 205 186 249 254 264 257 253 261 243 230 226 235 248 259 265
217 220 225 227 212 202 157 115 48 182 183 196 205 224 221 229 219 221 215 208 214 218 225 227 234 231 197 220 222 206 205 231 155 261 239 248 267 243 236 243 239 241 247 252
217 218 222 222 222 216 212 158 113 169 218 208 210 220 224 218 216 221 205 208 211 215 207 235 52 150 224 225 232 230 235 227 227 261 194 227 247 234 203 219 234 234 246 259
219 216 219 216 217 218 219 182 128 185 227 216 229 225 223 228 220 227 222 215 218 209 207 130 200 212 230 230 230 220 215 213 225 234 237 265 276 209 186 199 256 225 233 243
225 221 220 218 216 214 203 177 190 78 102 222 293 231 230 224 223 235 239 72 139 164 195 187 203 201 177 205 224 211 212 216 218 169 220 243 279 301 205 153 262 197 214 234
223 225 225 222 217 210 194 185 175 102 161 253 351 195 201 189 170 225 147 167 171 190 193 213 218 217 177 211 196 156 199 208 221 234 240 262 245 131 142 190 271 179 201 222
229 226 224 221 216 212 194 191 183 149 149 259 16 41 30 358 335 178 217 99 269 181 217 200 185 214 196 183 213 184 183 191 217 225 232 241 151 164 205 200 181 190 189 185
232 232 227 218 211 209 196 154 176 187 144 232 276 242 234 189 113 10 332 44 188 333 255 166 149 181 188 178 227 163 201 207 201 204 216 206 191 214 207 163 160 197 183 200
237 237 226 217 212 209 197 156 150 130 113 239 222 211 231 224 222 192 304 339 355 27 343 331 233 251 161 181 221 149 232 201 220 202 207 215 212 213 172 158 158 168 215 202
239 226 215 210 209 207 193 153 164 145 121 222 252 268 221 213 206 191 191 187 189 31 51 266 267 265 358 252 315 214 189 164 207 245 208 253 237 231 169 179 246 258 235 213
220 205 201 202 204 199 187 161 172 173 146 161 197 253 257 190 190 198 187 177 171 169 196 205 233 270 264 293 294 268 193 203 216 252 196 207 155 163 182 199 229 232 190 188
209 196 196 196 191 186 137 100 182 181 160 117 130 328 344 160 201 210 209 201 192 168 197 199 211 205 194 221 238 258 235 251 243 253 150 210 265 281 248 235 233 199 182 174
191 187 189 184 180 179 127 139 163 171 144 104 135 270 136 275 200 161 163 343 148 176 189 213 183 196 190 224 197 246 235 237 244 187 132 259 202 239 223 208 167 143 129 128
156 162 166 163 143 105 91 29 153 139 102 154 149 232 252 198 161 199 197 183 160 192 199 175 190 165 196 234 235 252 241 241 265 235 211 242 273 215 174 150 143 134 131 124
137 116 115 104 83 85 133 139 143 138 118 163 184 176 202 153 208 152 190 187 225 149 217 200 170 186 222 215 220 233 254 218 227 244 232 235 229 193 170 157 148 135 135 124
109 102 61 84 92 115 110 83 53 62 35 62 181 130 161 176 147 188 217 197 235 217 202 159 227 244 239 236 243 255 228 217 214 202 198 168 182 174 172 166 108 108 123 123
67 66 60 88 122 69 64 123 131 130 132 194 190 186 150 204 169 184 218 226 147 231 169 239 253 257 292 235 251 279 276 225 209 213 196 190 163 153 140 125 124 122 126 128
114 114 106 98 70 65 100 133 132 185 197 175 176 170 133 144 149 152 184 188 169 239 141 198 247 255 261 294 297 317 274 175 121 151 139 137 133 132 143 143 136 135 136 139
87 58 71 78 356 83 172 181 187 194 163 173 162 152 138 141 168 121 158 173 212 127 216 234 245 263 293 350 83 75 87 92 90 84 85 90 93 95 113 108 110 120 110 125
83 122 108 146 161 240 197 206 161 173 143 149 129 108 136 141 144 143 153 171 139 225 233 242 258 316 308 110 111 114 104 99 99 98 99 96 95 87 85 94 112 114 115 125
97 95 136 190 177 116 145 149 134 137 140 131 107 86 126 135 136 187 119 181 230 224 234 227 331 356 119 130 124 117 108 101 97 100 95 93 95 97 94 96 97 106 118 126
80 88 96 129 121 227 160 176 154 145 123 98 70 118 147 182 173 168 206 201 225 243 221 19 75 117 124 121 98 94 104 108 107 108 113 106 98 107 107 95 83 83 84 83
85 306 35 149 173 194 182 164 177 138 153 149 142 163 189 125 196 218 194 219 258 7 345 18 106 123 118 111 102 98 102 109 112 109 108 104 107 106 98 88 79 84 80 76